Location: Newark
(39.6867°N, 100.6772°W)
Time: 04:51:28
(UTC+00:00)

Explorer 11/Cluster Stage 4 - Pass Details

Date: 22 October 2019
Orbit: 467 x 1259 km, 28.8° (Epoch: 17 November)

Event Time Altitude Azimuth Distance (km) Brightness Sun altitude
Rises 18:41:18 0° 247° (WSW) 2,550 9.5 39.1°
Reaches altitude 10° 18:44:50 10° 211° (SSW) 1,767 9.4 39.0°
Maximum altitude 18:46:08 11° 192° (SSW) 1,730 9.7 39.0°
Drops below altitude 10° 18:47:28 10° 173° (S) 1,864 9.7 38.9°
Sets 18:51:34 0° 140° (SE) 2,954 10.0 38.8°
